Weather History for Souda, Greece

Change the Weather History Date:

Saturday, November 3, 2012

  Actual Average Record
Temperature  
Mean Temperature 68 °F -  
Max Temperature 72 °F 66 °F 78 °F (2000)
Min Temperature 64 °F 53 °F 51 °F (1997)
Cooling Degree Days 4    
Growing Degree Days 18 (Base 50)    
Moisture  
Dew Point 60 °F    
Average Humidity 75    
Maximum Humidity 88    
Minimum Humidity 57    
Precipitation  
Precipitation 0.00 in 0.10 in - ()
Sea Level Pressure  
Sea Level Pressure 29.97 in    
Wind  
Wind Speed 7 mph ()    
Max Wind Speed 15 mph    
Max Gust Speed -    
Visibility 6.2 miles    
Events      
Averages and records for this station are not official NWS values.
T = Trace of Precipitation, MM = Missing Value Source: Averaged Metar Reports

Daily Weather History Graph

Daily Weather History Graph

Search for Another Location

Airport:

Trip Planner

Search our weather history database for the weather conditions in past years. The results will help you decide how hot, cold, wet, or windy it might be!

Date:

Astronomy

Nov. 03, 2012 Rise Set
Actual Time 6:47 AM EET 5:26 PM EET
Civil Twilight 6:20 AM EET 5:52 PM EET
Nautical Twilight 5:50 AM EET 6:22 PM EET
Astronomical Twilight 5:20 AM EET 6:52 PM EET
Moon 8:53 PM EET (11/3) 10:34 AM EET (11/3)
Length of Visible Light 11h 31m
Length of Day
10h 38m
Waning Gibbous, 82% of the Moon is Illuminated
Nov 3
Waning Gibbous
Nov 7
Last Quarter
Nov 14
New
Nov 20
First Quarter
Nov 28
Full

Hourly Weather History & Observations

Time (EET) Temp. Dew Point Humidity Pressure Visibility Wind Dir Wind Speed Gust Speed Precip Events Conditions
12:20 AM 68.0 °F 59.0 °F 73% 29.92 in 6.2 mi West 8.1 mph - N/A   Partly Cloudy
12:50 AM 66.2 °F 59.0 °F 78% 29.92 in 6.2 mi West 8.1 mph - N/A   Partly Cloudy
1:20 AM 66.2 °F 59.0 °F 78% 29.92 in 6.2 mi West 8.1 mph - N/A   Partly Cloudy
1:50 AM 66.2 °F 59.0 °F 78% 29.92 in 6.2 mi West 11.5 mph - N/A   Partly Cloudy
2:00 AM 67 °F 59 °F 67% 29.92 in 6 mi West 11.5 mph - -   Scattered Clouds
2:20 AM 66.2 °F 59.0 °F 78% 29.92 in 6.2 mi WSW 9.2 mph - N/A   Partly Cloudy
2:50 AM 66.2 °F 59.0 °F 78% 29.92 in 6.2 mi WSW 13.8 mph - N/A   Partly Cloudy
3:20 AM 66.2 °F 59.0 °F 78% 29.92 in 6.2 mi WSW 13.8 mph - N/A   Partly Cloudy
3:50 AM 66.2 °F 57.2 °F 73% 29.92 in 6.2 mi WSW 13.8 mph - N/A   Partly Cloudy
4:20 AM 66.2 °F 57.2 °F 73% 29.92 in 6.2 mi WSW 13.8 mph - N/A   Partly Cloudy
4:50 AM 66.2 °F 57.2 °F 73% 29.92 in 6.2 mi WSW 13.8 mph - N/A   Partly Cloudy
5:20 AM 66.2 °F 57.2 °F 73% 29.92 in 6.2 mi WSW 13.8 mph - N/A   Partly Cloudy
5:50 AM 66.2 °F 57.2 °F 73% 29.92 in 6.2 mi WSW 15.0 mph - N/A   Partly Cloudy
6:50 AM 66.2 °F 57.2 °F 73% 29.95 in 6.2 mi WSW 11.5 mph - N/A   Mostly Cloudy
7:20 AM 68.0 °F 59.0 °F 73% 29.95 in 6.2 mi WSW 10.4 mph - N/A   Scattered Clouds
7:50 AM 68.0 °F 59.0 °F 73% 29.98 in 6.2 mi WSW 8.1 mph - N/A   Scattered Clouds
8:00 AM 68 °F 59 °F 66% 29.96 in 6 mi WSW 8.1 mph - -   Partly Cloudy
8:20 AM 68.0 °F 59.0 °F 73% 29.98 in 6.2 mi WSW 8.1 mph - N/A   Scattered Clouds
8:50 AM 69.8 °F 60.8 °F 73% 29.98 in 6.2 mi West 8.1 mph - N/A   Scattered Clouds
9:20 AM 69.8 °F 60.8 °F 73% 29.98 in 6.2 mi West 8.1 mph - N/A   Scattered Clouds
9:50 AM 71.6 °F 60.8 °F 69% 29.98 in 6.2 mi WNW 5.8 mph - N/A   Scattered Clouds
10:50 AM 71.6 °F 60.8 °F 69% 30.01 in 6.2 mi Calm Calm - N/A   Scattered Clouds
11:20 AM 71.6 °F 60.8 °F 69% 30.01 in 6.2 mi Calm Calm - N/A   Scattered Clouds
11:50 AM 71.6 °F 60.8 °F 69% 30.01 in 6.2 mi Calm Calm - N/A   Partly Cloudy
12:50 PM 73.4 °F 59.0 °F 61% 29.98 in 6.2 mi NNW 4.6 mph - N/A   Partly Cloudy
1:20 PM 73.4 °F 59.0 °F 61% 29.98 in 6.2 mi NNW 4.6 mph - N/A   Scattered Clouds
1:50 PM 73.4 °F 60.8 °F 65% 29.98 in 6.2 mi North 4.6 mph - N/A   Scattered Clouds
2:00 PM 73 °F 61 °F 57% 29.99 in 6 mi North 4.6 mph - -   Partly Cloudy
2:20 PM 73.4 °F 60.8 °F 65% 29.98 in 6.2 mi North 4.6 mph - N/A   Scattered Clouds
2:50 PM 71.6 °F 59.0 °F 64% 29.98 in 6.2 mi NE 6.9 mph - N/A   Scattered Clouds
3:20 PM 71.6 °F 59.0 °F 64% 29.98 in 6.2 mi NE 4.6 mph - N/A   Mostly Cloudy
3:50 PM 71.6 °F 62.6 °F 73% 29.98 in 6.2 mi NE 5.8 mph - N/A   Mostly Cloudy
4:20 PM 71.6 °F 62.6 °F 73% 29.98 in 6.2 mi ENE 6.9 mph - N/A   Mostly Cloudy
4:50 PM 69.8 °F 62.6 °F 78% 29.98 in 6.2 mi ENE 6.9 mph - N/A   Mostly Cloudy
5:20 PM 69.8 °F 62.6 °F 78% 29.98 in 6.2 mi ENE 4.6 mph - N/A   Mostly Cloudy
5:50 PM 69.8 °F 64.4 °F 83% 29.98 in 6.2 mi ENE 4.6 mph - N/A   Mostly Cloudy
6:20 PM 69.8 °F 64.4 °F 83% 29.98 in 6.2 mi ENE 4.6 mph - N/A   Scattered Clouds
6:50 PM 68.0 °F 62.6 °F 83% 30.01 in 6.2 mi Calm Calm - N/A   Scattered Clouds
7:20 PM 68.0 °F 62.6 °F 83% 30.01 in 6.2 mi Calm Calm - N/A   Scattered Clouds
7:50 PM 68.0 °F 62.6 °F 83% 30.01 in 6.2 mi Calm Calm - N/A   Scattered Clouds
8:00 PM 67 °F 63 °F 83% 30.02 in 6 mi Calm Calm - -   Partly Cloudy
8:20 PM 68.0 °F 62.6 °F 83% 30.01 in 6.2 mi Calm Calm - N/A   Scattered Clouds
8:50 PM 66.2 °F 62.6 °F 88% 30.04 in 6.2 mi Calm Calm - N/A   Scattered Clouds
9:20 PM 66.2 °F 62.6 °F 88% 30.04 in 6.2 mi Calm Calm - N/A   Partly Cloudy
9:50 PM 66.2 °F 62.6 °F 88% 30.04 in 6.2 mi Calm Calm - N/A   Partly Cloudy
10:50 PM 66.2 °F 62.6 °F 88% 29.98 in 6.2 mi Calm Calm - N/A   Partly Cloudy
11:50 PM 64.4 °F 60.8 °F 88% 30.04 in 6.2 mi Calm Calm - N/A   Partly Cloudy